Location: Le Rocchette
(44.3500°N, 7.8333°E)
Time: 19:41:27
(UTC+00:00)

Cosmos 2298 Rocket - Pass Details

Date: 17 November 2019
Orbit: 777 x 783 km, 74.0° (Epoch: 05 December)

Event Time Altitude Azimuth Distance (km) Brightness Sun altitude
Rises 04:36:51 0° 190° (S) 3,249 7.2 -19.5°
Reaches altitude 10° 04:39:15 10° 187° (S) 2,325 6.5 -19.1°
Maximum altitude 04:44:28 65° 107° (ESE) 859 4.5 -18.2°
Drops below altitude 10° 04:49:43 10° 27° (NNE) 2,338 6.7 -17.3°
Sets 04:52:07 0° 24° (NNE) 3,269 7.4 -16.8°
